Zurück zum Katalog

ONEWEB-0326

AktivKommunikationPO
NORAD 49195·PAYLOAD·🇬🇧 United Kingdom

Gestartet Sep 14, 2021 von Baikonur Cosmodrome

Loading…

Nächste Überflüge (nächste 24 Stunden)

TLE

AktuellSource: CelesTrak SupGP

Epoche: Sep 15, 2026, 02:01 UTC

1 49195C 21083K   26258.08456433  .00002575  00000+0  65386-2 0  2584
2 49195  87.9170 317.5975 0002158 103.6112 337.1980 13.18686867    15

Verfolge ONEWEB-0326 in Echtzeit mit AllMySat

Download on the App Store